Wind_Speed
16 15 15 15 14 14 14 13 13 13 13 13 13 12 12 11 12 12 12 12 12 12 13 13 13 13 13 13 14 15 18 19 19 14 9 12 11 8 7 4 9 14 11 7 5 6 6 5 4 5 5 3 1 0 1 0 1 3 3 2 2 3 4 5 6 5 3 3 6 6 5 5 4 2 1 4 6 3 4 4 2 4 5 5 9 21 30 26
16 16 16 15 14 14 14 14 13 13 13 13 13 13 12 12 12 12 12 12 12 12 12 13 13 13 13 13 13 16 19 19 17 14 12 11 8 7 7 8 9 13 12 8 7 7 7 3 3 5 4 2 1 1 1 1 2 3 3 2 3 5 4 5 6 5 2 2 6 8 3 4 2 3 1 3 1 1 3 4 4 5 5 8 14 23 26 25
16 16 16 15 15 14 14 14 13 13 13 13 13 13 12 12 12 12 12 12 12 12 12 12 13 13 13 13 13 16 18 14 9 8 5 4 4 8 8 12 11 11 10 7 7 7 8 7 7 6 4 2 1 1 1 1 1 2 3 1 5 6 4 5 5 6 5 2 6 8 3 5 5 3 2 4 4 1 3 2 1 3 3 8 12 18 21 21
16 16 16 15 15 15 15 14 13 13 13 13 13 13 12 12 12 12 12 11 12 12 11 11 12 13 13 13 13 15 13 6 3 3 1 5 2 7 12 15 14 10 7 5 7 7 7 7 6 5 4 2 3 2 1 2 1 1 3 4 5 4 3 7 7 7 6 2 3 6 5 7 6 2 3 7 6 3 5 6 6 7 9 12 11 12 15 16
16 16 16 15 14 15 15 14 14 13 13 13 13 13 12 12 12 12 12 11 11 11 11 11 11 12 13 12 12 11 7 3 2 3 2 3 3 8 16 16 14 10 8 8 9 9 7 5 5 5 4 2 2 3 2 3 2 1 3 6 5 5 3 7 6 6 5 1 2 4 5 5 3 3 5 8 6 4 5 7 9 8 12 15 13 12 13 13
16 16 16 15 14 15 15 14 14 13 13 13 13 13 12 12 12 12 11 11 11 10 10 10 10 11 12 12 9 6 3 1 5 5 4 2 1 9 18 16 13 10 9 9 8 8 5 5 5 3 3 2 2 1 4 3 2 1 4 2 3 5 4 5 3 4 3 1 4 4 3 2 2 2 3 6 6 6 5 4 6 7 9 13 14 14 13 13
16 16 16 15 14 15 14 14 14 13 13 13 13 13 12 12 12 11 11 11 11 10 10 9 10 10 11 11 5 4 3 5 8 5 5 3 2 12 20 17 13 12 11 9 7 5 4 6 4 4 4 3 3 3 4 2 1 2 3 4 3 5 6 6 3 3 3 5 7 3 5 5 2 2 1 4 7 6 5 2 11 11 11 13 13 13 13 13
17 17 16 15 15 15 14 14 14 13 13 13 13 12 12 12 12 11 11 10 10 10 9 8 9 9 11 9 3 3 1 7 7 5 6 3 5 14 22 17 14 14 12 10 8 6 5 6 4 3 3 1 4 3 2 1 2 3 4 4 2 4 7 7 4 6 6 7 6 2 6 10 7 2 3 5 9 6 2 7 13 13 13 12 13 14 12 12
18 17 16 16 15 15 14 14 13 13 13 12 13 12 12 13 12 11 10 10 9 9 8 7 7 7 9 6 3 3 3 5 6 5 5 3 5 14 22 19 16 15 12 9 7 7 5 4 5 4 3 3 4 2 1 2 2 5 6 4 3 4 7 5 5 7 6 5 2 2 7 10 5 3 3 5 5 1 6 10 12 14 13 12 12 12 12 12
18 18 17 16 15 15 14 14 13 13 13 12 12 12 12 12 11 11 10 10 9 8 7 6 6 6 6 4 3 1 4 4 6 5 3 4 5 14 22 19 19 16 11 9 7 7 5 5 5 4 4 2 3 2 2 4 3 5 5 4 6 7 7 2 4 6 3 4 5 6 8 7 4 1 3 5 3 6 9 9 10 14 13 12 12 10 10 10
19 18 18 17 16 15 14 13 13 13 12 12 12 11 11 11 11 10 9 9 8 7 6 4 5 4 3 3 3 2 4 5 7 5 3 4 4 14 21 19 20 18 12 7 8 11 7 6 7 5 2 1 2 1 2 5 3 4 4 3 6 5 6 3 5 6 2 3 6 9 5 3 5 0 5 4 5 8 11 10 9 12 11 11 11 9 8 8
18 18 18 17 16 15 14 13 13 12 12 11 11 11 10 10 10 10 9 8 7 6 5 3 3 3 2 2 4 8 5 7 9 7 3 2 3 11 18 18 19 19 15 8 9 16 10 5 6 5 0 2 1 1 2 4 2 2 3 2 7 7 6 5 4 4 4 3 6 8 2 4 3 5 6 2 6 8 10 11 8 9 9 10 9 8 7 7
18 18 18 18 17 16 14 13 12 12 11 10 10 10 10 10 9 9 8 7 6 5 3 1 1 2 1 1 7 8 9 11 12 9 4 4 3 8 14 16 15 16 17 12 7 11 11 5 4 3 1 2 1 2 1 1 1 2 2 1 4 7 6 6 1 2 5 3 5 7 2 5 7 9 7 2 8 10 10 9 8 8 8 8 7 7 7 8
19 19 18 18 17 17 15 13 12 11 11 10 10 9 9 8 7 7 7 6 5 4 2 0 0 1 1 6 10 8 11 12 11 11 7 7 6 6 11 14 13 14 15 12 4 2 11 9 1 2 1 2 2 3 3 5 3 1 1 1 3 2 4 8 3 3 3 2 4 5 3 5 8 10 7 4 9 12 11 9 8 8 7 7 6 8 8 7
20 19 19 18 17 17 16 14 12 11 10 10 9 9 8 7 6 6 5 5 4 2 2 2 2 1 1 8 11 6 6 7 10 13 9 9 9 6 11 14 13 15 12 10 4 2 7 9 3 1 3 2 2 2 3 4 3 3 0 2 3 1 4 9 4 5 5 2 3 6 3 5 8 9 6 6 8 10 11 9 9 8 8 7 6 7 7 5
21 20 19 19 18 17 17 16 13 10 10 9 9 9 7 6 4 4 3 3 2 3 4 2 2 2 0 5 5 2 4 5 6 9 9 12 9 4 11 13 9 11 9 7 7 3 4 5 2 2 1 1 4 4 3 4 4 4 2 2 2 1 2 6 3 4 5 1 1 4 4 3 5 6 4 6 8 9 10 9 10 9 8 7 6 6 6 5
21 20 20 20 19 18 18 17 14 11 10 9 9 8 5 3 1 2 1 1 1 4 6 2 1 2 3 6 4 3 4 4 5 7 11 14 10 6 11 9 4 7 7 5 7 4 2 2 1 0 2 2 2 4 3 2 3 4 2 1 3 1 1 3 4 4 1 2 2 2 4 5 5 5 2 6 7 8 10 10 11 9 8 6 5 6 6 5
21 21 21 20 19 18 18 18 16 11 9 9 7 5 2 1 2 1 1 3 2 3 4 1 0 1 3 4 3 5 5 5 6 5 11 12 11 9 7 3 3 5 4 3 3 3 1 0 1 1 2 3 2 5 3 3 3 2 1 1 2 2 2 3 4 4 2 1 3 2 4 8 8 7 4 7 7 8 9 8 9 9 8 7 6 7 6 6
21 21 21 21 20 19 18 18 18 12 9 7 4 3 2 2 2 3 3 2 3 2 2 3 3 1 3 4 5 8 10 8 6 5 10 10 10 9 2 2 4 4 3 2 0 2 2 1 3 2 1 1 3 5 6 7 6 6 4 3 3 3 4 5 5 5 1 1 5 6 6 6 6 6 6 7 7 8 5 4 5 6 7 7 6 6 6 7
21 21 21 21 20 19 18 18 18 14 9 5 2 2 2 1 2 1 1 2 5 5 6 5 7 4 6 6 4 7 9 5 2 4 9 10 9 7 1 3 5 4 2 3 2 1 3 3 1 4 6 6 7 6 6 5 6 6 4 3 3 3 5 5 7 5 3 4 6 8 7 4 6 8 7 6 6 7 6 6 6 6 7 7 8 7 7 6
21 20 20 21 20 19 18 18 18 14 9 5 1 1 0 0 3 3 2 4 8 9 9 9 10 8 8 6 3 4 5 3 2 2 6 10 9 7 1 2 4 2 1 3 2 2 5 4 5 8 8 7 6 5 5 5 5 3 2 1 2 4 5 6 6 5 1 5 5 4 6 5 7 7 4 6 8 9 11 11 9 9 8 6 8 9 7 5
21 20 20 20 19 19 18 18 18 14 9 5 1 1 2 1 2 4 3 4 9 10 13 12 9 10 11 10 9 2 2 2 6 5 6 8 5 4 1 4 5 2 2 2 2 5 4 2 9 9 6 5 4 5 5 4 4 3 2 1 3 3 4 6 5 4 2 3 4 2 6 3 6 5 3 7 9 8 9 10 10 11 10 8 10 10 8 6
22 21 20 19 19 19 18 18 17 12 6 4 3 4 3 5 7 8 2 3 8 6 9 10 6 7 8 8 10 6 3 3 4 5 8 10 3 4 4 4 4 3 2 3 4 1 0 5 8 5 7 7 3 4 6 4 3 3 4 3 3 3 1 3 5 4 3 1 0 3 6 2 5 3 2 5 3 1 1 5 5 7 9 7 8 7 7 8
23 22 21 19 19 18 17 18 13 5 5 8 9 5 6 12 12 6 2 1 6 3 5 8 6 6 7 5 9 11 3 5 4 4 9 12 4 3 4 4 4 2 2 4 7 5 5 6 2 6 7 7 5 3 6 5 1 3 4 5 4 4 4 5 4 5 4 2 3 5 5 4 4 2 2 3 1 1 2 5 5 5 5 4 5 6 7 8
23 23 22 21 19 17 17 14 5 3 10 12 8 7 13 17 12 1 2 2 4 5 3 4 3 5 7 5 10 11 3 3 6 5 9 12 8 4 2 3 3 2 4 5 7 3 7 6 5 6 5 6 6 4 5 7 3 3 4 9 9 6 6 5 3 5 5 3 3 5 4 2 5 2 3 5 2 2 1 4 7 6 5 5 6 7 8 7
24 23 23 21 19 19 15 5 0 7 13 8 4 10 16 17 9 4 3 4 3 5 2 1 1 4 7 6 7 6 3 3 7 7 9 11 11 6 2 1 1 3 5 5 4 2 4 3 4 5 5 5 5 3 6 8 5 1 5 8 8 6 4 2 1 3 2 1 2 4 4 2 5 2 1 6 4 2 3 3 5 5 6 6 6 7 7 7
24 23 23 21 19 18 9 3 6 9 6 4 6 14 17 16 5 5 3 5 3 4 1 0 0 5 6 6 7 6 2 3 2 6 8 12 10 4 2 3 0 2 4 4 1 2 4 2 3 4 5 5 3 4 6 8 8 2 5 5 7 6 4 2 4 4 2 2 3 5 4 4 2 2 3 2 2 1 5 5 5 5 7 7 6 6 7 8
24 24 24 21 19 15 8 9 10 6 4 5 11 15 17 13 2 4 4 3 2 2 2 1 1 4 2 4 8 5 3 2 3 2 4 13 10 3 3 7 5 5 3 5 3 5 3 4 2 4 5 3 4 5 6 10 6 6 5 7 6 6 5 4 6 3 1 1 2 7 4 4 2 5 3 3 4 1 6 7 7 7 7 7 7 7 7 7
25 25 24 22 19 14 9 8 8 6 6 8 12 16 15 9 1 4 4 0 2 1 0 1 1 2 2 3 6 3 1 1 2 2 1 8 7 3 4 6 6 6 1 5 5 6 3 5 5 5 4 4 6 5 8 10 4 4 6 6 5 6 5 4 5 3 3 3 2 6 4 3 3 5 4 3 3 3 7 7 7 7 6 7 7 6 7 6
27 26 24 22 17 11 6 8 13 11 7 8 13 15 11 5 4 4 1 2 2 2 0 0 1 1 4 4 3 4 2 2 1 1 3 2 1 3 3 3 6 5 1 3 2 5 3 2 3 3 3 5 4 2 5 6 4 4 6 6 6 6 5 4 3 4 4 2 5 7 2 3 1 5 3 1 1 3 5 5 5 6 6 7 7 6 7 7
28 27 24 20 15 10 4 7 11 6 2 9 15 11 5 3 4 4 3 4 3 2 2 1 2 2 4 5 2 3 2 2 1 3 2 1 2 3 1 1 3 3 3 5 3 4 5 3 2 3 3 4 5 4 1 1 3 5 5 5 4 4 5 4 4 4 4 2 5 6 3 4 2 4 3 2 5 5 4 6 6 7 10 10 9 8 8 7
29 27 24 21 17 13 11 9 8 6 7 12 11 4 4 1 0 2 4 4 2 1 1 0 2 2 2 3 2 3 2 1 1 3 4 3 3 4 3 4 3 3 3 3 2 4 4 3 4 5 3 4 6 4 3 5 5 5 5 5 4 2 2 1 3 1 2 4 3 3 3 2 3 5 3 3 7 6 6 7 7 7 8 8 8 8 7 6
29 28 25 20 15 17 18 15 13 13 12 8 3 4 6 3 3 5 4 3 1 1 1 1 2 2 3 2 2 4 2 2 4 2 3 3 4 4 2 2 6 4 1 3 1 2 4 5 4 3 3 2 6 5 2 0 1 4 5 4 4 3 2 1 2 0 1 3 2 4 2 1 3 4 2 4 6 6 7 7 8 8 8 7 6 5 5 6
29 27 23 19 16 18 19 16 13 10 7 2 3 5 4 3 4 4 4 4 3 3 3 1 3 3 2 2 4 4 3 3 4 4 2 3 3 3 2 1 3 5 3 2 1 2 1 4 3 3 2 1 5 5 6 5 3 3 4 5 5 4 4 3 3 2 2 2 2 4 1 3 3 3 5 6 5 4 4 4 5 4 4 4 5 7 7 6
28 24 20 15 12 13 14 15 14 10 6 3 5 4 4 4 3 2 3 4 2 3 4 3 2 2 2 3 3 2 2 4 3 5 2 3 4 4 4 4 4 4 4 3 2 2 3 4 6 4 1 2 4 3 5 6 3 1 2 6 3 4 5 3 2 4 4 2 0 2 2 3 4 3 7 5 4 5 5 5 5 4 3 4 6 6 7 7
27 21 12 9 13 16 15 11 13 15 8 5 5 3 5 4 4 3 2 1 1 2 4 5 3 2 3 3 3 3 2 1 2 3 1 2 4 4 3 4 5 7 6 4 3 1 2 4 6 3 2 2 4 3 4 4 3 1 2 3 4 4 7 6 2 1 3 4 1 1 2 4 2 1 5 6 6 7 7 7 6 5 6 7 6 5 7 7
26 17 5 10 21 20 16 10 14 17 7 6 5 5 4 3 4 4 1 1 1 2 3 2 2 1 1 2 3 4 2 1 1 1 2 2 2 3 3 2 4 9 9 5 3 3 4 3 6 1 1 2 1 4 4 2 4 4 3 5 3 3 5 5 3 3 4 3 2 2 1 4 2 1 5 9 7 7 8 8 6 4 5 6 5 5 6 7
20 10 2 13 25 19 10 7 19 15 5 4 5 4 3 3 3 3 1 2 1 2 4 1 2 1 1 1 3 4 1 1 1 0 2 2 3 3 3 2 3 6 8 7 3 2 4 1 7 2 2 4 4 6 4 5 3 4 4 4 3 3 2 2 3 2 2 3 2 3 1 2 2 2 6 7 6 7 7 7 7 6 5 5 4 5 5 5
11 4 2 16 27 17 1 15 19 8 4 5 5 3 3 3 4 3 2 1 1 1 1 3 2 1 1 1 3 4 1 3 2 0 2 1 3 2 1 1 2 1 3 8 5 1 3 2 4 3 1 2 5 4 2 3 4 4 3 2 2 2 4 2 3 3 4 4 2 1 2 2 4 4 6 6 7 7 6 6 5 5 5 5 4 4 5 5
4 1 2 18 23 8 13 14 9 4 3 5 4 3 2 3 4 4 4 2 1 1 1 3 1 1 3 2 2 3 0 2 3 1 1 2 3 2 1 0 1 1 0 5 5 1 3 3 3 4 3 2 1 0 3 4 2 3 3 2 1 2 3 2 2 2 4 5 3 2 0 4 4 3 5 8 8 6 5 5 4 4 5 5 4 4 5 5
3 2 3 19 15 9 9 5 2 3 4 2 1 3 2 2 2 4 4 3 2 3 2 3 3 2 3 2 2 2 1 0 3 2 1 2 2 1 2 1 3 2 2 5 3 2 2 3 3 2 4 3 1 4 3 5 6 5 3 2 3 3 4 4 2 1 2 4 4 5 3 5 4 3 5 7 7 7 6 6 4 3 4 5 4 4 4 5
4 3 7 21 7 9 3 3 2 1 3 2 1 3 2 1 2 3 3 1 2 3 1 2 4 4 4 3 3 3 1 0 2 2 1 2 3 3 2 4 1 3 4 4 3 3 3 4 3 2 1 0 4 5 4 1 5 7 3 3 4 3 3 5 4 3 2 3 2 4 3 4 4 4 5 6 6 6 5 4 2 4 5 4 5 5 5 5
3 1 9 22 6 8 3 4 1 4 1 3 2 2 1 1 1 2 2 1 1 2 1 1 3 2 3 3 2 2 1 1 1 1 2 1 2 3 1 6 4 2 4 2 1 1 2 3 4 2 2 3 5 5 5 4 5 6 3 3 3 1 2 5 5 4 4 3 2 4 1 4 4 5 5 7 7 7 6 3 5 5 4 5 5 6 6 6
2 3 5 21 19 6 4 3 2 4 3 4 4 3 4 1 1 2 1 1 3 1 1 2 1 1 1 1 3 1 0 1 1 1 1 1 1 1 3 8 5 3 2 1 3 2 0 1 4 3 2 3 3 4 5 5 3 4 2 2 2 3 5 4 2 3 3 4 4 5 2 4 3 5 8 9 10 9 9 7 6 5 5 5 6 7 7 7
3 0 3 12 20 13 4 1 2 2 3 4 4 5 6 3 3 4 2 3 3 1 0 2 2 1 1 3 3 3 3 2 1 2 2 2 2 3 6 9 8 4 3 2 2 3 2 1 3 5 4 4 4 3 3 2 1 2 2 3 3 4 4 3 2 4 3 3 3 4 4 4 4 8 11 12 11 11 10 9 8 7 6 6 6 7 8 8
2 3 3 6 9 8 3 2 3 1 1 3 3 5 6 3 5 4 4 4 3 2 2 2 3 2 3 5 4 3 6 4 2 3 3 4 3 3 6 5 7 6 5 6 6 4 4 2 3 5 4 4 5 5 4 3 3 1 2 3 3 2 2 4 4 2 4 4 2 1 4 2 5 9 11 11 11 10 9 9 9 8 7 7 7 8 9 10
2 2 3 3 4 4 3 5 6 5 4 3 2 4 6 5 5 5 3 3 2 3 3 4 6 5 3 3 3 3 5 5 5 4 3 4 3 3 7 4 6 7 5 5 5 3 5 3 2 6 5 2 2 3 3 4 4 1 1 2 3 4 5 6 5 1 4 6 0 3 3 5 3 7 8 8 9 8 8 9 8 7 8 8 9 11 13 12
3 1 0 0 2 3 3 4 7 9 10 7 3 3 7 8 7 6 4 2 3 4 3 4 9 8 4 2 3 3 6 5 5 5 3 4 3 4 6 5 6 7 4 4 4 3 6 1 1 4 6 6 5 6 6 5 5 5 5 4 5 7 7 6 3 1 2 6 4 3 7 6 2 5 6 6 6 6 7 7 7 8 9 10 12 13 13 12
3 1 2 1 3 2 1 2 4 7 11 9 5 5 8 9 8 6 5 3 4 6 5 4 7 9 8 5 4 4 4 3 4 4 3 4 4 3 4 4 4 6 5 4 3 2 5 1 0 5 6 7 8 8 7 6 5 5 7 6 5 9 9 7 3 3 5 6 6 10 12 7 2 3 4 5 5 4 5 7 9 11 10 11 12 12 11 10
2 1 3 3 3 3 1 1 2 4 6 7 5 6 8 8 7 6 6 6 4 6 6 4 5 7 7 8 7 5 2 2 1 2 2 3 4 3 3 1 3 6 6 3 2 2 4 2 1 4 6 4 5 7 8 7 6 6 7 7 6 8 9 7 4 4 7 7 6 10 12 7 2 2 4 5 4 5 9 11 11 10 9 10 12 11 10 10
2 2 1 2 3 5 4 2 2 3 3 4 3 5 7 8 7 4 5 7 5 4 5 5 5 5 4 9 9 5 2 2 4 5 4 2 2 2 1 1 1 4 6 3 2 3 3 4 1 4 5 1 0 5 6 8 9 7 5 5 6 6 5 4 3 2 3 6 6 7 7 4 1 2 4 4 5 9 11 10 9 8 8 10 12 11 10 10
5 1 2 3 2 5 4 2 3 3 2 2 2 3 4 6 8 5 3 5 6 6 5 5 4 2 4 9 8 5 7 6 7 7 5 4 5 4 3 3 2 1 3 2 2 2 2 5 4 3 4 3 4 6 7 7 7 2 2 2 2 3 5 5 4 4 2 5 7 5 4 4 3 3 4 6 8 10 9 7 6 7 7 9 9 9 9 8
Wind_Direction
322 322 319 319 318 317 316 316 314 313 315 314 314 315 315 317 315 317 318 315 315 314 319 324 323 323 323 324 326 319 313 315 315 310 275 272 282 261 243 216 183 178 170 169 163 142 124 105 123 135 129 124 24 186 162 106 117 65 92 132 202 187 190 182 191 195 169 276 285 320 11 44 357 14 55 32 42 85 84 3 352 24 26 85 111 131 140 144
323 322 320 318 317 316 315 315 313 313 314 313 314 314 313 314 315 319 318 316 317 316 324 324 322 327 325 326 327 318 316 317 309 287 269 278 277 248 222 191 176 179 182 193 193 152 123 120 140 119 94 100 333 18 120 253 142 110 116 153 217 196 210 202 194 208 198 252 290 309 337 18 339 177 112 78 64 80 93 341 10 51 52 94 115 131 139 142
322 323 321 318 317 315 316 315 312 313 313 312 312 312 313 314 315 318 318 318 319 321 325 323 325 328 327 328 327 320 319 321 308 272 279 336 256 225 202 184 175 173 182 186 180 149 122 135 141 114 69 78 317 41 93 307 181 165 137 181 239 207 231 253 231 232 233 256 307 303 325 348 291 188 99 132 148 208 183 224 87 113 139 126 130 137 136 138
323 323 322 320 317 314 316 315 312 312 312 311 312 313 312 313 315 316 317 319 319 322 323 325 327 328 329 328 323 321 324 333 303 260 300 11 335 191 185 182 172 167 169 138 147 146 122 121 115 96 81 77 327 15 122 266 205 176 150 190 233 177 215 261 240 246 261 251 259 288 337 323 283 137 110 136 130 268 239 220 199 180 164 146 141 138 133 134
325 324 324 322 318 316 317 315 312 312 311 312 312 312 312 313 315 315 317 318 319 321 323 326 327 330 330 325 325 325 344 35 273 292 342 353 13 171 177 174 168 166 148 123 132 133 117 104 78 67 76 95 6 37 248 252 139 172 218 195 194 145 217 256 217 236 257 203 232 298 332 301 297 85 151 150 146 225 230 223 210 179 158 151 143 135 130 130
329 327 327 323 320 318 317 316 312 312 312 312 313 312 313 313 313 316 318 319 320 321 324 327 328 331 330 329 335 344 36 15 277 302 313 315 24 170 170 167 171 167 149 139 134 123 105 76 68 79 76 82 118 136 244 264 105 226 269 237 213 173 223 255 191 225 231 233 271 272 304 310 36 14 197 178 195 227 254 226 164 136 138 140 134 135 138 145
334 331 329 326 322 319 317 316 313 311 312 311 313 312 313 313 313 316 316 319 319 320 324 325 332 332 332 338 341 25 67 267 277 294 295 284 170 172 169 169 173 169 158 148 127 119 106 91 94 125 101 89 157 200 240 279 64 209 266 301 267 188 219 253 244 273 256 251 258 273 330 306 279 304 223 223 246 269 296 105 115 114 122 130 133 141 149 156
340 336 332 329 323 320 318 316 313 311 312 312 314 313 313 313 312 314 315 318 317 321 324 323 336 331 331 348 3 11 349 259 279 284 284 254 176 173 174 173 174 173 162 155 142 137 120 116 148 137 103 163 167 193 233 52 20 220 232 273 265 196 235 263 274 276 263 250 254 314 302 274 253 202 152 229 268 304 31 107 112 118 125 135 144 147 152 157
344 341 336 332 326 323 320 316 314 311 311 313 313 312 312 311 312 314 314 317 317 318 323 325 334 330 333 354 37 351 268 274 314 301 285 237 193 181 182 180 179 177 161 167 167 153 148 152 183 165 151 183 161 191 201 109 277 224 212 243 264 267 269 278 278 267 256 248 195 166 264 271 271 175 190 248 250 253 103 112 119 125 132 142 151 153 154 158
347 345 340 336 331 327 322 318 315 312 313 312 312 311 309 311 311 313 314 316 318 315 319 326 326 329 336 352 68 351 281 331 343 315 293 237 203 182 185 186 183 178 164 173 176 163 170 184 183 152 138 136 158 185 142 149 200 202 192 239 248 265 282 276 270 271 263 252 179 177 243 281 325 152 239 270 178 128 107 116 131 132 140 151 155 157 154 157
348 347 344 341 337 332 326 321 317 314 312 310 310 308 306 311 310 312 314 313 313 312 311 318 326 329 340 39 105 222 276 352 356 345 319 256 214 187 189 191 187 181 166 158 189 195 191 186 162 113 113 156 160 215 218 188 183 186 172 275 275 291 301 244 253 267 226 246 193 176 224 321 3 246 232 237 151 127 121 130 142 139 146 154 154 154 155 160
349 348 346 345 342 337 331 325 320 315 311 310 308 307 308 309 308 308 310 311 312 309 304 310 328 312 337 46 205 232 270 324 326 331 320 249 215 198 195 194 194 189 177 164 207 209 196 182 139 98 199 163 111 311 232 202 181 199 136 286 296 355 336 256 251 242 172 222 182 154 214 327 314 239 252 229 134 121 125 137 148 146 149 152 151 151 160 165
351 350 350 348 346 343 336 328 323 318 312 312 309 308 307 302 303 305 306 310 307 302 302 318 313 290 349 273 237 257 295 299 298 300 270 212 201 200 197 195 198 200 196 187 205 211 202 201 98 89 178 124 255 253 124 63 42 289 84 117 306 8 337 274 294 122 151 203 156 142 228 279 265 252 268 239 139 126 129 147 155 152 154 151 147 155 169 171
354 353 353 351 348 346 342 333 325 320 315 313 310 306 302 298 300 302 307 307 293 285 276 255 279 115 122 259 269 296 301 285 274 264 239 206 190 185 195 193 197 205 207 200 194 224 209 213 77 49 243 163 237 277 357 7 17 331 358 42 4 26 288 290 309 121 151 215 145 141 232 256 266 265 260 212 155 139 143 156 160 160 162 154 148 163 178 184
355 355 355 354 351 348 346 340 330 323 319 314 311 307 302 301 299 301 308 300 284 250 210 199 208 148 12 280 282 299 286 273 259 250 237 208 184 167 191 191 198 204 206 203 180 99 181 186 160 104 264 250 66 13 346 349 4 34 65 310 351 143 268 304 295 169 190 262 113 140 221 260 259 266 255 191 163 148 151 159 164 169 165 154 157 170 179 188
355 355 356 355 353 351 348 345 336 326 323 317 312 310 303 303 306 307 301 285 276 182 171 183 209 174 291 286 296 318 263 265 266 253 229 209 197 166 176 178 195 203 205 202 183 178 149 148 159 149 234 311 87 90 42 14 349 2 92 226 282 152 280 316 307 210 201 222 72 155 191 257 261 279 277 180 167 152 152 164 169 173 169 159 162 174 176 177
353 354 354 355 354 352 350 348 342 328 324 320 316 314 305 303 301 302 299 214 230 179 167 161 194 179 258 279 300 315 279 271 277 246 209 205 202 156 147 157 187 186 185 176 171 194 179 147 251 89 53 37 100 101 65 9 315 316 29 111 250 208 257 307 311 292 146 136 245 185 176 227 272 298 244 173 167 157 162 174 176 172 167 160 160 177 183 179
352 352 353 354 353 352 350 350 346 333 324 327 331 341 349 117 162 173 117 129 118 139 165 222 239 211 274 276 284 294 307 313 299 243 199 199 196 175 140 137 151 130 118 112 149 166 159 10 54 84 11 17 67 92 124 218 198 205 183 64 293 304 274 254 274 285 35 61 238 190 208 238 270 292 222 180 169 173 180 175 175 172 164 160 164 183 188 185
352 351 350 351 352 352 348 349 350 340 330 343 2 26 72 132 138 129 117 122 116 130 246 242 177 191 275 262 274 293 308 316 294 232 190 183 187 195 199 72 107 96 94 85 194 181 141 54 64 124 261 287 187 151 175 203 164 155 169 154 190 270 273 248 251 255 195 247 240 212 222 227 242 259 221 195 171 166 169 148 165 172 161 160 168 187 191 195
352 349 346 347 348 350 348 346 348 343 335 348 27 47 77 79 29 40 140 192 205 226 263 229 186 232 280 271 297 321 322 323 266 221 190 179 162 162 191 42 54 47 96 141 197 213 115 118 176 199 210 217 213 189 174 174 136 125 130 151 194 224 272 266 259 276 144 172 250 226 209 185 210 229 213 188 158 152 160 160 177 182 172 169 171 186 198 200
350 347 344 344 344 346 347 341 341 341 334 328 323 46 56 48 13 316 275 241 232 228 249 235 203 229 253 255 306 8 355 331 305 296 195 183 146 132 231 44 69 30 280 177 163 11 67 127 227 221 204 204 198 172 146 124 107 102 130 214 272 224 249 257 253 306 85 174 254 229 177 176 217 239 228 168 163 181 185 175 181 185 180 173 173 185 195 186
349 347 343 342 340 341 344 338 335 332 326 324 300 223 254 253 350 304 286 283 261 217 228 241 223 244 251 255 268 279 55 313 310 313 180 165 138 157 205 75 122 203 294 106 90 4 27 223 243 225 180 140 119 123 128 124 111 92 109 164 267 241 271 286 272 318 333 199 266 198 133 182 251 275 268 194 185 199 194 181 179 180 180 180 182 185 183 172
349 346 343 340 338 338 340 335 328 321 318 317 262 226 271 313 324 307 275 292 284 216 212 231 218 238 247 256 241 185 145 204 267 291 174 151 144 175 142 102 149 164 65 121 145 127 286 254 249 200 145 130 112 112 115 100 91 113 128 148 250 259 310 292 281 318 334 334 300 111 94 10 308 331 267 227 214 248 148 150 154 174 186 183 176 177 179 180
347 345 342 339 336 337 338 330 325 330 337 307 274 269 329 331 332 318 200 246 286 261 216 209 193 214 225 234 190 163 170 193 190 267 176 153 138 153 156 148 138 139 215 174 148 164 224 238 172 119 139 153 151 145 132 124 227 249 184 168 219 241 208 227 282 332 342 19 70 74 55 1 347 9 254 294 331 288 90 130 150 172 178 161 157 171 180 185
346 344 341 339 336 335 336 329 325 15 334 303 278 325 343 337 341 320 167 357 288 285 271 200 186 218 204 175 165 162 156 198 204 219 175 160 151 140 188 168 129 188 209 152 129 179 246 236 154 137 172 170 158 179 180 165 187 287 226 202 204 205 219 239 324 13 27 11 16 63 65 306 323 334 256 318 334 222 224 171 180 174 165 174 184 186 183 180
344 342 339 339 336 335 338 331 313 345 326 292 283 338 336 338 349 163 134 31 298 287 303 181 182 198 180 158 163 149 106 248 226 186 163 171 167 140 140 176 117 201 178 143 136 194 254 239 145 153 167 162 164 222 219 170 134 320 243 210 187 171 206 238 60 69 87 308 321 69 109 230 320 359 265 324 330 265 281 223 196 177 180 198 202 197 188 178
341 340 338 336 336 340 341 296 303 321 310 273 320 333 334 344 351 172 90 24 295 279 212 239 6 174 177 174 165 136 140 260 207 158 163 174 172 115 148 198 109 190 170 122 146 238 205 152 76 99 107 121 161 242 226 152 120 240 236 154 139 153 183 169 104 100 181 221 329 11 87 117 328 264 244 319 50 304 283 251 229 204 198 203 203 202 196 185
339 338 336 332 334 336 312 287 294 289 251 281 320 331 337 344 338 154 66 28 285 299 189 256 176 171 172 172 170 159 200 183 121 218 193 168 171 98 185 219 184 184 177 119 187 261 193 168 159 126 98 118 195 217 189 146 137 241 208 133 134 142 137 119 100 89 7 108 313 325 29 95 270 276 306 35 95 236 263 244 234 223 212 207 202 203 199 193
337 336 332 328 329 326 306 277 264 269 286 305 324 330 334 340 32 94 64 110 277 350 175 339 140 170 86 144 194 223 285 71 129 255 96 157 179 103 169 212 157 164 199 120 191 257 235 204 193 142 122 207 218 212 178 161 175 217 155 107 74 75 77 77 91 92 34 64 228 288 351 101 256 289 327 25 84 238 252 247 237 225 222 216 206 203 196 192
336 332 328 326 322 322 317 271 270 280 295 321 329 328 335 0 69 68 69 241 273 292 157 41 288 148 110 131 220 259 264 309 75 90 57 133 172 62 133 159 103 131 294 31 203 247 279 257 186 152 187 199 180 164 179 169 144 133 109 65 44 35 32 45 52 76 62 8 253 267 299 121 234 284 257 189 233 239 252 274 252 220 222 218 205 202 197 191
333 329 325 319 308 303 293 277 291 296 304 331 332 333 352 37 74 95 203 243 262 298 11 351 326 54 136 155 218 254 235 279 35 104 117 113 93 74 101 108 75 76 7 348 305 292 331 340 241 253 227 156 112 76 48 44 74 99 84 69 70 2 11 33 358 44 92 269 259 271 287 117 140 258 217 241 280 278 268 271 254 217 214 213 200 194 193 183
330 326 321 312 297 272 249 256 281 283 295 321 332 3 71 80 104 164 234 285 295 296 359 253 325 10 178 181 210 223 194 220 230 139 148 144 149 175 185 189 171 64 356 282 291 335 325 260 267 303 273 156 115 73 22 12 36 77 83 84 95 15 12 33 310 25 158 242 261 290 295 127 210 237 215 266 276 280 268 261 265 245 225 223 211 192 178 167
328 324 319 313 291 259 255 263 265 267 282 303 349 50 77 112 223 218 232 283 258 278 346 173 302 297 170 155 227 212 172 214 225 182 153 127 154 202 232 176 156 125 182 219 209 342 309 301 314 324 286 196 133 128 144 250 95 129 134 125 125 109 88 214 266 331 219 239 277 304 291 219 266 267 303 299 280 275 271 264 265 260 245 236 215 165 143 146
328 325 320 312 290 269 267 263 248 242 251 246 78 70 97 157 236 225 224 248 254 320 353 314 306 304 164 179 231 197 171 228 198 155 152 112 140 220 261 234 163 128 124 149 163 174 195 305 277 193 257 226 157 165 165 155 150 171 156 128 144 154 144 192 214 171 194 219 295 301 278 166 207 278 310 297 290 296 297 293 284 275 251 201 156 131 128 123
329 328 326 320 311 306 293 261 233 206 185 128 72 91 162 204 239 215 218 246 278 335 322 311 340 348 313 291 269 197 177 237 171 127 144 145 166 202 189 203 199 135 120 161 217 175 157 248 257 247 282 146 179 193 135 118 105 220 135 109 153 181 142 135 169 166 165 131 37 270 237 209 207 278 312 322 347 354 357 358 9 26 45 99 113 118 121 116
332 336 344 350 343 336 323 281 218 191 174 113 93 166 200 212 209 195 213 234 27 341 329 341 36 66 316 312 316 347 32 202 142 123 176 182 192 210 196 209 192 161 150 162 201 167 142 257 281 309 1 161 195 185 140 147 172 175 122 153 215 175 119 111 129 61 80 122 191 273 274 305 330 313 326 3 19 3 3 9 19 49 73 86 97 113 118 117
335 343 5 358 345 332 314 283 191 177 158 105 144 202 215 214 198 191 226 27 19 32 58 21 335 242 283 305 301 320 14 80 104 136 205 226 227 207 207 246 184 181 182 166 206 204 146 259 291 343 92 285 238 113 81 68 127 126 176 198 193 107 97 103 112 21 46 135 248 342 324 310 3 162 329 2 11 351 351 358 360 23 72 89 97 108 116 120
332 337 341 351 348 339 312 212 170 161 117 116 176 221 209 211 208 199 218 44 9 30 75 164 252 264 195 204 268 277 182 169 306 188 176 230 251 190 176 220 174 191 194 165 195 239 124 241 292 279 168 303 351 74 62 350 44 119 169 162 118 124 141 90 117 134 105 147 266 352 354 283 196 221 327 345 326 316 330 343 352 358 22 55 60 59 72 86
331 338 13 356 351 347 126 162 158 134 84 155 193 225 205 228 256 242 224 85 113 99 112 225 237 332 310 189 230 260 195 169 219 271 142 176 247 213 125 191 153 231 202 161 173 234 108 153 274 278 194 330 3 66 140 302 6 55 83 60 44 130 155 157 138 149 145 151 189 51 10 281 218 247 307 303 287 295 306 316 332 334 349 24 48 48 51 57
351 50 31 1 2 44 129 141 139 97 128 172 193 204 212 239 266 272 246 209 182 168 208 223 195 305 285 266 231 250 302 149 159 182 183 181 224 244 323 325 128 2 37 138 149 86 80 142 223 289 335 41 30 10 188 189 127 75 67 47 14 67 115 147 96 92 129 139 165 148 202 267 249 256 287 292 293 293 278 271 282 304 340 14 38 56 63 66
15 76 354 359 15 118 121 99 110 116 147 146 163 199 243 224 238 299 273 207 200 227 212 189 197 232 236 279 270 238 329 118 159 160 211 186 165 189 308 290 169 171 91 98 133 147 113 152 182 301 6 48 299 292 251 194 156 135 138 149 151 129 124 127 118 277 110 121 164 156 172 260 276 290 293 301 301 293 269 239 240 317 1 16 23 54 73 75
35 93 347 357 11 169 70 43 178 79 116 154 200 206 240 189 186 275 271 212 205 228 243 187 218 232 210 221 245 213 164 237 200 181 195 183 149 149 329 339 36 140 115 121 183 181 138 115 98 58 30 260 273 293 304 227 116 107 104 120 130 122 110 127 170 215 100 93 154 116 122 246 280 321 327 332 321 309 287 219 141 28 10 13 18 34 49 59
50 173 350 8 32 184 51 50 265 355 65 235 279 250 263 211 203 255 244 22 296 221 358 258 214 224 225 225 223 189 160 140 193 211 206 171 126 163 341 356 4 63 91 113 200 156 113 94 82 40 324 315 298 310 329 341 70 81 53 58 97 84 91 137 174 170 126 143 149 84 103 242 296 342 353 354 352 4 15 47 79 54 16 21 31 32 34 31
17 232 335 22 42 74 60 60 313 336 312 310 352 356 326 333 22 322 223 39 359 13 346 278 254 6 294 62 84 90 241 140 78 349 196 116 40 270 19 35 37 35 65 150 186 162 152 99 101 96 33 353 325 332 336 332 28 84 71 22 68 90 88 115 136 79 108 181 159 125 189 243 296 354 7 7 8 22 25 28 57 62 33 26 28 27 26 24
12 334 281 17 39 52 62 18 284 275 306 343 24 12 347 343 348 349 71 77 16 36 127 280 318 2 359 45 57 16 19 86 109 20 17 3 334 325 13 44 59 39 8 23 80 102 112 99 104 126 147 166 186 229 251 249 28 79 92 36 56 94 101 136 124 79 129 185 129 131 189 237 323 357 5 6 9 16 14 16 31 37 31 29 32 33 30 27
49 38 320 334 24 45 45 333 331 296 339 9 40 16 359 332 317 343 62 68 19 29 47 343 338 12 35 41 52 19 12 25 73 69 30 340 316 316 340 25 66 51 33 38 39 75 104 66 71 111 136 179 194 225 231 147 106 119 135 67 43 49 76 103 100 116 171 146 63 158 168 118 360 353 356 357 4 11 10 15 24 24 24 32 38 40 37 33
82 53 4 326 348 11 8 358 13 23 8 18 60 5 353 355 343 344 21 41 21 32 54 28 20 31 13 14 76 46 356 1 34 50 17 322 292 300 324 4 50 31 38 52 15 55 95 45 40 85 60 12 226 278 332 79 86 64 99 62 32 25 49 84 96 165 150 123 110 263 121 92 1 337 345 348 355 8 14 19 26 28 30 40 45 43 40 36
57 108 286 8 12 358 346 346 4 20 18 20 50 11 2 21 28 6 343 348 16 26 54 34 21 23 360 328 115 62 357 6 27 9 340 338 336 335 343 11 31 11 29 55 7 75 104 50 289 92 50 22 17 359 12 72 77 34 25 23 35 46 57 84 99 325 110 134 180 156 93 87 349 332 342 344 349 7 23 30 38 41 41 48 51 48 44 38
45 69 304 19 75 49 322 315 343 20 24 14 15 16 10 21 28 15 351 345 2 15 46 52 6 5 11 23 92 76 11 35 39 353 337 349 341 359 10 358 353 1 30 56 15 80 103 38 286 105 67 23 13 7 19 62 83 51 25 16 52 74 72 76 74 34 67 101 128 112 94 80 359 331 345 345 343 15 48 48 47 46 45 51 55 52 46 40
51 68 320 13 61 25 9 8 4 37 29 13 13 5 1 13 18 13 21 32 20 358 15 37 352 343 13 37 64 84 68 116 102 317 321 357 342 16 42 316 308 347 9 45 9 10 93 133 210 99 77 24 13 31 34 47 70 64 31 10 38 74 73 64 69 74 75 83 103 105 97 80 11 355 10 358 360 54 62 53 49 47 43 52 58 52 45 39
10 213 343 67 44 0 353 353 17 67 35 11 12 351 351 1 356 2 41 43 52 28 356 350 332 322 16 38 48 57 351 262 216 244 240 223 288 316 354 277 312 348 350 14 3 350 75 126 149 81 96 189 32 98 91 74 67 55 21 351 3 44 74 68 50 55 104 134 130 106 103 116 136 53 41 27 43 62 61 55 55 53 46 52 57 52 46 41
2 276 49 90 78 1 352 350 9 53 55 352 328 337 342 342 346 16 61 18 25 35 2 339 343 6 33 22 17 2 325 289 250 252 239 217 249 261 258 274 277 282 308 351 31 9 93 137 151 111 122 177 189 151 128 100 87 53 301 293 16 76 108 91 41 7 29 138 147 140 148 165 153 107 87 63 57 62 59 50 53 55 51 55 58 54 49 42
Height
786 785 784 783 783 782 781 780 780 779 779 778 777 777 776 776 775 774 774 773 772 772 770 770 769 767 766 765 764 762 760 757 755 755 753 743 740 743 744 745 746 747 749 750 751 753 754 756 756 757 757 759 761 761 760 761 762 763 772 777 779 784 777 771 770 766 764 762 758 756 757 758 757 756 753 753 756 757 758 757 756 755 755 754 755 755 759 764
786 784 783 783 782 781 780 779 779 778 777 777 776 776 775 774 774 773 772 772 771 770 770 769 768 766 765 764 763 760 758 756 754 751 745 739 739 742 742 744 745 747 748 749 751 751 753 755 755 757 758 760 762 761 761 761 761 765 776 778 777 779 771 764 764 761 761 761 758 756 757 757 756 757 754 758 764 760 760 760 758 759 759 757 757 759 761 764
785 784 783 782 781 780 779 778 777 777 776 776 775 774 774 773 773 772 772 771 770 770 769 768 767 765 764 763 762 759 757 755 750 744 739 737 739 740 741 743 745 747 748 749 750 751 752 754 754 756 758 761 763 762 762 762 762 765 772 776 774 771 766 762 761 759 758 759 760 758 757 757 753 753 754 759 765 763 762 761 760 761 762 761 760 761 763 766
785 783 782 781 780 779 778 777 776 776 775 775 774 773 773 772 772 771 771 770 769 769 768 767 766 765 764 762 760 758 757 754 745 738 738 738 738 739 741 742 744 746 748 749 750 751 751 752 753 755 758 762 764 763 763 762 763 765 768 770 768 768 767 760 758 757 756 759 760 758 758 757 752 751 754 758 764 766 761 757 755 755 758 761 761 763 765 768
784 782 781 780 779 778 777 776 775 775 774 774 773 772 772 772 771 771 770 769 769 768 767 767 766 764 763 761 760 758 756 752 743 737 738 738 738 739 740 742 744 746 748 749 750 751 751 752 753 756 759 762 764 763 764 762 761 765 765 765 763 766 766 758 756 757 755 757 758 758 758 756 752 753 755 756 758 758 753 750 749 750 754 757 760 763 766 769
783 781 780 779 778 777 776 775 774 774 773 772 772 772 771 771 770 770 769 769 768 768 767 766 765 765 763 761 760 758 756 750 741 737 738 738 738 739 740 742 745 746 748 749 750 751 752 753 754 757 760 763 766 765 764 762 761 765 764 761 761 763 762 756 755 756 756 757 757 757 756 755 755 755 755 755 751 748 746 746 747 751 754 756 759 763 765 768
782 780 779 778 777 776 775 774 773 773 772 772 771 771 770 770 770 769 769 768 768 767 766 766 765 764 763 761 760 759 759 749 738 738 737 737 738 738 740 742 744 746 747 748 749 751 753 754 756 758 761 763 766 764 762 761 761 765 765 761 760 761 759 755 755 756 757 757 755 755 754 754 756 756 757 755 748 745 746 745 747 751 755 758 761 763 764 766
781 780 778 777 776 775 774 773 772 772 771 771 770 770 770 769 769 768 768 768 767 766 766 765 765 764 763 762 760 760 758 746 736 737 737 737 738 738 740 742 744 745 747 748 749 751 752 754 756 758 761 762 764 762 761 762 763 764 765 761 759 760 757 754 756 756 756 755 754 756 755 752 753 755 756 753 748 746 747 747 748 752 756 760 761 762 764 766
781 779 778 776 775 774 773 772 771 771 770 770 769 769 769 768 768 768 767 767 767 766 766 765 765 765 763 763 763 757 747 739 736 737 737 737 738 739 740 741 743 745 746 748 749 750 752 754 755 756 758 760 762 761 760 764 765 761 761 760 758 757 754 755 755 753 754 754 753 756 755 750 750 754 753 750 749 748 748 749 750 753 757 761 762 763 764 766
781 779 777 776 774 773 772 771 770 769 769 769 769 769 768 767 767 767 767 767 766 766 765 766 765 765 764 763 763 755 740 736 737 736 737 737 738 739 740 741 742 744 746 748 749 750 751 752 753 753 755 759 761 761 761 763 762 757 758 759 757 756 755 755 754 752 754 753 752 754 753 751 751 754 752 749 750 749 750 753 753 754 758 761 762 764 765 767
780 778 777 775 773 772 771 770 769 769 768 768 768 767 767 766 766 766 766 766 766 766 765 765 765 765 765 764 764 753 738 736 737 736 737 737 738 738 739 741 742 744 746 748 749 749 750 750 751 752 756 759 760 761 760 758 757 756 757 757 756 756 755 754 753 752 754 751 749 751 752 753 753 753 750 749 750 750 751 755 756 757 759 761 763 765 766 768
780 778 777 775 773 771 770 769 768 768 767 767 767 766 766 766 765 765 765 765 765 765 765 765 766 765 765 765 761 747 736 737 737 737 738 737 738 739 739 741 741 743 745 747 749 748 750 750 750 753 757 758 761 763 758 755 756 755 756 758 756 755 753 751 751 751 753 749 745 750 756 758 756 751 749 750 751 751 754 757 758 759 760 762 764 766 767 768
779 777 776 774 773 771 770 768 767 767 766 766 765 765 765 765 765 764 764 765 765 765 765 765 765 765 766 760 747 738 736 738 737 737 738 738 739 739 740 741 742 744 745 746 748 749 751 751 751 754 755 758 761 759 755 754 755 755 758 760 759 760 756 751 752 752 751 749 744 750 763 762 754 749 749 752 752 752 757 759 759 761 761 764 766 767 767 768
779 777 775 774 772 771 769 768 767 766 765 764 764 764 764 763 764 763 764 764 764 765 765 765 765 765 766 753 737 736 737 736 736 736 736 737 738 739 740 742 743 744 746 747 749 750 751 751 753 755 755 757 757 755 756 757 758 759 761 764 769 770 760 750 751 752 749 749 744 749 765 763 751 747 749 752 751 752 758 760 760 761 762 765 767 768 768 768
778 777 775 773 772 770 768 767 766 765 764 763 762 762 762 762 762 763 764 764 764 764 764 765 765 765 765 749 735 736 736 734 735 734 735 737 737 738 739 741 743 744 746 749 750 750 750 752 754 757 756 754 755 758 761 761 761 764 766 769 776 774 763 752 751 753 749 748 746 751 765 763 750 746 748 751 751 752 757 760 761 761 763 766 768 768 768 769
778 776 775 773 771 770 768 767 765 764 763 762 762 761 761 761 762 762 763 763 763 763 764 765 764 766 762 745 735 735 735 735 734 733 735 736 737 737 738 741 743 744 747 749 750 750 751 752 754 756 756 756 759 761 764 767 767 770 770 770 773 772 768 759 750 750 749 748 748 751 761 759 749 747 749 751 751 753 758 760 760 761 763 766 768 768 768 770
778 776 774 773 771 769 768 766 765 764 763 762 761 760 760 761 761 762 762 763 763 763 764 764 764 766 754 738 736 736 734 734 733 733 733 734 737 737 738 742 743 744 746 748 750 750 751 753 755 757 758 761 762 760 769 777 773 772 773 770 772 772 770 765 754 748 748 749 749 750 756 754 749 751 752 751 752 755 758 759 760 761 763 766 768 768 769 770
777 776 774 772 771 769 767 766 764 763 762 761 760 760 760 760 761 762 762 762 763 764 765 764 765 762 747 736 737 736 733 733 732 733 733 734 737 738 739 740 741 743 746 749 751 751 752 755 758 758 760 763 762 762 772 777 771 770 771 769 773 774 771 769 760 748 746 750 752 754 756 753 750 753 754 752 752 755 758 758 759 760 763 765 768 768 769 770
777 776 774 772 771 769 767 766 764 763 762 761 760 760 760 761 761 762 763 763 763 759 756 757 757 751 742 737 736 734 732 732 732 732 732 734 736 738 739 739 741 743 746 750 752 752 753 756 760 762 763 763 761 761 764 765 764 765 768 769 772 772 768 766 758 749 750 754 756 756 755 753 752 751 753 753 752 756 759 760 761 762 763 765 767 768 769 770
777 775 773 771 770 768 767 765 764 763 761 761 761 760 760 760 760 760 762 762 757 748 744 746 747 743 739 736 734 733 732 731 732 731 732 733 735 738 740 740 742 745 748 751 753 753 753 759 763 762 760 758 757 760 761 762 765 765 768 770 772 774 768 759 753 748 752 757 755 755 756 756 752 747 752 754 754 758 760 761 763 763 763 764 767 768 768 769
776 774 772 771 769 768 766 764 763 762 761 761 761 760 758 757 759 758 757 753 746 743 742 740 740 739 735 734 733 733 734 733 732 731 732 732 734 739 741 743 746 750 752 753 753 753 755 762 762 755 756 757 758 764 765 765 767 766 768 770 772 774 765 754 751 749 753 756 754 755 759 759 751 747 753 756 756 757 756 759 762 762 763 764 765 767 767 768
776 773 772 770 768 767 766 764 763 761 761 760 760 761 758 756 757 756 755 751 740 738 739 736 737 737 732 732 733 734 738 738 734 731 731 733 735 739 743 745 748 751 754 754 754 757 760 761 754 752 760 762 762 766 766 766 767 767 771 773 769 768 763 754 751 752 754 752 750 753 756 757 754 753 756 756 754 753 752 754 756 759 762 763 763 764 766 768
774 772 771 769 767 766 765 763 761 760 760 760 760 760 757 755 754 753 755 754 741 732 733 734 735 734 731 731 731 733 738 739 736 732 730 732 736 739 742 745 748 751 754 754 755 761 764 757 750 755 761 760 762 766 765 766 767 768 771 772 766 765 764 757 751 752 756 755 753 753 753 755 757 755 754 754 755 754 753 754 755 758 760 761 761 762 764 767
773 771 770 767 766 765 763 762 760 760 759 759 758 756 755 754 752 752 752 752 743 731 728 728 729 729 728 727 726 731 735 735 734 731 727 731 736 739 740 743 748 752 753 752 754 759 758 752 752 757 758 756 759 764 765 764 767 769 770 767 760 758 759 757 754 753 753 756 757 755 755 758 758 755 752 752 755 755 754 756 756 758 760 760 761 761 762 765
771 770 768 766 765 763 763 761 759 760 759 757 755 753 753 752 750 751 751 753 748 734 726 725 726 724 721 723 725 727 731 731 729 726 725 727 733 738 740 741 745 751 753 754 757 757 752 750 752 754 755 756 756 760 761 762 765 766 762 756 751 752 753 754 757 756 753 756 759 759 761 764 759 755 755 754 756 757 757 757 757 758 760 760 761 760 760 763
770 769 766 765 764 762 761 760 759 760 758 755 753 752 752 750 750 749 752 762 756 735 727 727 726 721 717 723 724 724 732 730 721 721 724 725 727 732 739 742 743 747 751 752 755 754 749 749 750 750 753 757 757 757 757 759 765 764 754 750 751 753 752 751 753 755 758 759 761 762 763 766 761 754 758 760 757 758 759 759 759 759 760 760 760 760 760 761
769 767 765 764 762 761 761 759 759 759 756 753 751 752 751 748 749 747 754 769 758 732 727 729 726 720 717 720 720 725 735 728 719 721 721 723 725 728 738 744 743 745 746 750 754 751 747 747 750 749 751 757 757 753 752 754 760 757 751 752 753 751 751 752 752 754 760 760 761 761 758 765 766 756 761 765 760 761 761 761 761 759 759 759 759 760 759 760
768 766 764 763 761 761 760 759 759 757 754 752 750 751 748 747 748 747 761 774 751 725 724 725 720 717 716 719 718 721 726 722 723 726 718 720 725 727 738 741 740 742 741 747 754 750 746 745 745 745 749 754 751 746 748 750 750 749 750 753 751 750 753 754 753 756 764 763 761 762 760 767 770 759 758 764 760 761 761 759 760 758 758 758 757 758 758 759
766 764 763 761 760 760 759 758 757 754 752 750 750 749 747 747 747 751 770 771 740 721 722 720 719 718 719 722 722 719 719 719 724 725 719 722 724 726 735 737 737 741 740 744 748 744 743 742 739 741 744 744 740 742 747 743 743 747 752 755 752 755 759 758 758 757 761 766 766 768 767 769 772 762 757 761 758 755 755 755 758 758 757 758 757 758 758 758
763 762 761 759 758 758 757 756 753 750 750 750 750 748 746 748 751 765 780 764 736 726 722 719 722 721 721 727 727 722 722 721 720 722 722 724 724 724 730 733 734 740 742 744 744 741 740 740 738 737 736 735 734 743 750 744 745 748 748 750 751 755 758 760 765 761 765 774 771 773 774 770 772 766 758 759 756 752 749 750 753 755 756 756 756 757 757 757
761 760 758 757 756 756 756 754 749 748 750 749 749 747 747 753 762 777 775 749 734 730 723 723 725 721 722 728 729 725 725 724 720 723 726 727 728 730 732 735 737 743 748 746 743 743 741 739 739 732 730 733 733 742 749 746 747 748 745 749 755 762 763 764 769 767 775 783 775 778 781 773 772 766 759 760 758 755 753 748 748 750 752 751 752 754 755 756
758 756 755 754 753 753 753 750 747 748 749 748 749 747 751 763 771 773 759 739 737 734 727 729 727 723 725 726 728 726 726 727 722 723 727 730 733 734 735 738 740 748 756 752 746 746 741 737 737 732 728 730 732 741 749 747 747 748 749 754 763 774 776 776 780 780 782 782 777 782 781 773 768 761 760 766 763 760 760 754 750 750 751 750 750 751 753 755
754 752 750 749 749 747 746 746 747 748 748 748 750 749 757 770 769 761 751 742 739 732 728 729 727 726 728 727 728 726 726 728 724 723 726 729 735 736 733 735 736 741 752 756 754 751 745 740 736 733 730 727 730 740 747 749 748 747 749 755 765 780 787 790 797 797 789 780 780 783 778 772 767 759 762 766 763 762 762 759 756 754 753 752 750 753 755 756
751 748 746 744 744 742 741 743 745 746 748 748 749 754 764 770 762 753 750 744 736 731 729 729 728 727 726 727 725 722 726 727 723 725 728 731 737 739 736 737 736 735 744 755 757 754 755 750 737 732 732 728 728 732 735 739 744 748 750 752 758 766 774 784 788 785 783 782 782 781 775 771 766 761 762 762 760 761 760 759 758 755 753 751 750 753 756 758
747 745 743 741 740 739 739 740 743 745 747 747 751 760 765 764 758 753 749 741 735 734 732 730 730 728 727 727 723 720 722 724 723 726 730 732 736 737 734 734 735 736 741 752 756 755 759 752 733 729 732 728 728 729 729 733 743 753 754 752 754 752 755 777 788 783 782 783 783 781 776 773 768 762 763 761 758 759 759 758 757 755 754 753 753 755 757 760
744 742 741 740 739 738 738 738 740 744 745 746 754 761 759 754 751 748 741 736 737 737 735 732 730 731 731 729 726 722 719 721 725 728 731 733 733 732 731 728 729 732 734 743 752 754 756 748 732 730 732 727 727 728 727 731 740 752 754 750 753 750 749 770 791 794 788 780 785 789 779 773 769 764 762 761 759 760 761 760 759 757 755 756 757 759 760 762
742 740 740 740 738 736 735 735 738 742 744 747 752 756 755 748 743 742 738 735 737 736 737 739 734 732 734 732 729 726 721 722 726 728 733 735 731 729 728 725 725 727 725 731 742 746 749 745 734 732 732 729 730 728 728 732 736 745 749 746 751 754 752 760 777 791 790 782 787 792 785 779 775 769 765 763 762 764 764 764 764 761 758 758 760 760 761 763
742 741 740 740 737 734 733 733 737 740 743 748 750 752 754 748 740 739 737 736 737 736 740 744 737 733 736 735 732 727 724 728 730 729 731 733 731 726 724 723 723 724 722 724 733 740 746 746 738 734 735 732 729 729 733 737 736 737 739 741 747 753 756 761 772 781 786 790 792 792 793 791 781 775 773 770 769 768 767 767 767 766 763 763 764 764 765 766
742 741 741 740 736 732 732 734 738 740 742 748 750 749 751 746 739 738 737 736 739 739 741 742 738 737 737 735 733 728 726 729 731 731 730 732 731 725 722 722 721 723 724 723 731 739 744 748 743 737 736 735 732 733 739 741 740 738 739 743 747 751 755 761 767 769 773 789 797 792 792 788 780 783 782 776 775 773 770 769 768 769 768 766 766 767 767 768
743 741 742 742 738 734 735 737 740 740 742 748 750 747 747 744 739 736 734 735 736 737 739 740 740 740 736 734 734 730 728 727 727 731 730 728 729 726 723 721 720 724 726 726 732 738 743 749 748 738 735 739 740 741 742 740 739 741 743 745 749 754 759 760 766 772 770 778 790 791 790 784 783 791 789 781 779 777 776 772 768 770 771 769 769 768 768 770
745 743 744 743 740 739 738 739 742 743 745 749 750 747 744 741 737 735 733 734 735 733 735 737 738 738 736 735 734 731 729 728 727 730 729 726 729 730 725 721 721 724 726 729 732 735 741 746 747 743 742 746 747 746 745 740 738 741 744 748 751 755 758 758 769 780 774 774 783 784 783 783 787 793 791 787 784 780 779 774 768 771 774 774 774 772 771 772
747 747 747 744 741 741 740 741 745 747 746 746 745 742 739 737 736 736 733 734 735 733 733 734 734 735 735 734 733 731 730 731 730 730 728 727 729 729 725 723 723 722 724 730 733 735 739 741 746 751 752 753 751 747 746 743 740 741 746 754 758 756 753 751 759 771 775 781 787 781 777 783 791 795 791 789 787 781 778 775 771 775 778 777 777 774 774 774
751 752 748 744 742 741 741 743 746 746 744 743 742 740 738 736 736 735 734 735 736 735 735 735 732 732 732 731 731 732 732 732 733 732 728 727 728 726 724 724 724 723 723 729 734 736 737 741 750 757 755 750 746 743 745 745 742 743 750 759 762 758 756 756 758 762 767 777 781 776 778 783 789 793 792 789 787 781 779 777 775 778 780 779 778 776 776 776
757 756 751 748 744 742 747 754 755 752 749 746 743 741 740 737 737 737 737 738 740 739 739 736 733 734 735 734 734 736 736 733 733 734 731 730 730 727 724 722 722 724 724 727 731 732 737 743 749 758 764 762 757 752 749 746 744 747 754 761 763 762 760 761 765 762 763 776 777 769 775 785 789 793 793 791 789 785 784 783 780 780 782 781 780 780 780 780
758 756 755 753 749 748 756 765 764 759 756 751 747 748 747 742 740 740 740 741 743 744 742 738 737 738 738 737 737 739 739 734 733 737 736 733 732 729 726 723 724 728 728 729 729 730 741 752 751 754 765 769 766 761 755 751 752 755 757 759 762 764 758 756 761 757 760 779 780 768 774 787 791 794 795 795 795 792 791 789 786 787 787 786 785 785 785 785
760 760 762 760 755 756 763 766 764 761 760 758 753 754 756 751 745 741 740 743 745 745 745 745 743 741 738 739 739 741 742 739 736 739 742 740 735 733 731 727 726 730 731 733 735 735 746 761 761 757 760 762 759 757 756 754 754 755 756 755 760 765 761 756 758 756 761 777 781 778 783 789 795 803 803 802 801 800 799 796 794 794 793 791 791 790 790 791
765 771 775 770 764 766 768 768 767 765 763 760 759 761 762 758 751 744 741 744 746 746 747 749 749 745 744 744 740 741 747 744 740 743 748 749 743 738 734 730 730 731 729 731 736 737 745 760 765 764 767 770 766 764 762 759 757 760 760 757 759 763 760 754 755 764 767 768 775 785 789 792 804 814 811 808 807 805 804 802 800 800 799 796 796 795 796 797
769 774 778 775 774 777 776 774 774 772 767 763 763 766 765 761 757 755 750 746 746 747 746 749 754 755 756 751 743 746 753 748 745 750 753 751 747 741 735 733 734 734 731 732 736 737 745 758 764 764 768 772 771 769 767 765 771 778 776 771 766 762 761 757 764 778 774 762 773 791 797 803 813 817 814 812 811 808 807 806 804 803 802 800 800 801 803 805
774 776 777 774 777 782 781 780 780 777 773 771 769 769 770 767 763 762 758 751 750 752 751 754 759 759 759 754 748 754 760 754 752 758 756 754 752 748 743 739 739 738 735 735 739 741 747 759 764 763 767 773 773 772 771 769 776 784 787 789 782 775 777 777 783 795 789 782 795 803 805 814 819 816 815 813 811 811 809 807 806 806 806 806 806 808 810 810
780 782 781 777 778 781 780 780 781 779 778 778 777 775 774 772 767 764 763 762 762 763 761 761 763 761 761 758 754 760 765 761 760 761 759 758 755 752 751 749 746 744 740 740 743 743 746 759 766 762 770 781 779 776 777 774 776 781 786 793 789 780 782 787 793 799 796 800 812 808 806 818 820 816 817 815 812 812 809 810 812 812 812 811 811 813 814 813
784 785 785 781 782 785 783 781 781 781 782 785 785 784 780 776 772 768 767 768 770 772 770 767 765 762 760 758 758 762 765 765 763 761 760 761 758 754 754 754 752 749 745 745 747 743 744 760 768 763 771 787 786 782 782 778 780 782 782 788 790 783 783 791 798 800 795 800 807 801 804 818 819 817 819 818 816 815 813 816 817 816 816 815 815 816 816 816
784 784 785 783 784 789 789 786 782 782 787 790 789 789 786 782 776 770 768 769 770 771 772 770 766 762 759 758 760 763 765 764 762 760 760 761 760 758 757 756 757 755 750 748 750 751 750 756 763 763 771 785 786 783 782 779 780 784 786 794 802 800 797 799 804 807 806 803 797 793 804 818 819 819 821 821 819 818 818 820 819 819 819 818 818 819 818 818